Flag for Russia Weather past 2 weeks in Pyatigorsk, Russia

Now
73 °F

Clear.


Feels Like: 76 °F
Forecast: 62 / 78 °F
Wind: No wind

Location: Mineral'Nye Vody

Current Time: Jul 5, 2015 at 9:20:26 PM

Latest Report: Jul 5, 2015 at 9:00 PM


Visibility: N/A

Pressure: 29.92 "Hg (28.14 "Hg at 533m altitude)

Humidity: 65%

Dew point: 61 °F

Location of PyatigorskLocation

Historic Weather in Pyatigorsk — Graph

°F

Pyatigorsk temperature yesterday

Maximum temperature yesterday: 84 °F (at 1:30 PM)
Minimum temperature yesterday: 66 °F (at 1:30 AM)
Average temperature yesterday: 73 °F

Past Weeks' High & Low Weather Summary

 TemperatureHumidityPressure
High90 °F (Jun 23, 1:30 PM)100% (Jun 22, 5:00 AM)30.15 "Hg (Jun 22, 5:00 AM)
Low59 °F (Jun 21, 4:00 AM)29% (Jul 5, 3:30 PM)29.65 "Hg (Jun 25, 5:30 PM)
Average73 °F72%29.89 "Hg
* Reported Jun 20 8:00 PM — Jul 5 8:00 PM, Pyatigorsk, Weather by CustomWeather, © 2015

Note: Actual official high and low records may vary slightly from our data, if they occured in-between our weather recording intervals... More about our weather records

Advertising

Pyatigorsk weather history for previous 24 hours

 ConditionsComfort  
Time TempWeatherWind HumidityBarometerVisibility
8:00 PM
Sun, Jul 5
79 °FClear.No wind51%29.92 "HgN/A
7:30 PM81 °FClear.1 mph48%29.92 "HgN/A
7:00 PM82 °FClear.3 mph45%29.92 "HgN/A
6:30 PM86 °FClear.6 mph35%29.92 "HgN/A
6:00 PM86 °FClear.10 mph33%29.92 "HgN/A
5:30 PM88 °FClear.13 mph31%29.89 "HgN/A
5:00 PM88 °FClear.13 mph31%29.92 "HgN/A
4:30 PM88 °FClear.15 mph31%29.92 "HgN/A
4:00 PM88 °FClear.15 mph31%29.92 "HgN/A
3:30 PM90 °FClear.15 mph29%29.92 "HgN/A
3:00 PM88 °FClear.15 mph31%29.95 "HgN/A
2:30 PM90 °FClear.15 mph31%29.95 "HgN/A
2:00 PM88 °FClear.17 mph31%29.95 "HgN/A
1:30 PM88 °FClear.17 mph31%29.95 "HgN/A
1:00 PM88 °FClear.17 mph33%29.98 "HgN/A
12:30 PM86 °FClear.17 mph35%29.98 "HgN/A
12:00 PM86 °FClear.20 mph35%29.98 "HgN/A
11:30 AM84 °FClear.22 mph33%30.01 "HgN/A
11:00 AM84 °FClear.22 mph33%30.01 "HgN/A
10:30 AM84 °FClear.20 mph35%30.01 "HgN/A
10:00 AM84 °FClear.20 mph37%30.01 "HgN/A
9:30 AM82 °FClear.20 mph42%30.01 "HgN/A
9:00 AM81 °FClear.17 mph48%30.04 "HgN/A
8:30 AM77 °FClear.10 mph65%30.04 "HgN/A
8:00 AM77 °FClear.10 mph65%30.04 "HgN/A
7:30 AM73 °FClear.10 mph74%30.04 "HgN/A
7:00 AM72 °FClear.3 mph78%30.04 "HgN/A
6:30 AM70 °FClear.6 mph83%30.04 "HgN/A
6:00 AM68 °FClear.6 mph88%30.04 "HgN/A
5:30 AM66 °FClear.3 mph94%30.04 "HgN/A
5:00 AM64 °FClear.3 mph94%30.04 "HgN/A
4:30 AM64 °FClear.6 mph94%30.04 "HgN/A
4:00 AM64 °FClear.8 mph94%30.04 "HgN/A
3:30 AM64 °FClear.6 mph88%30.04 "HgN/A
3:00 AM66 °FClear.3 mph88%30.04 "HgN/A
2:30 AM66 °FClear.6 mph88%30.04 "HgN/A
2:00 AM66 °FClear.8 mph88%30.04 "HgN/A
1:30 AM66 °FClear.8 mph88%30.04 "HgN/A
1:00 AM66 °FClear.3 mph83%30.04 "HgN/A
12:30 AM66 °FClear.3 mph83%30.04 "HgN/A
12:00 AM66 °FClear.3 mph83%30.07 "HgN/A
11:30 PM
Sat, Jul 4
66 °FClear.6 mph83%30.07 "HgN/A
11:00 PM66 °FClear.6 mph83%30.07 "HgN/A
10:30 PM68 °FClear.6 mph83%30.07 "HgN/A
10:00 PM70 °FClear.No wind78%30.07 "HgN/A
9:30 PM70 °FClear.1 mph78%30.07 "HgN/A
9:00 PM70 °FClear.3 mph73%30.07 "HgN/A
Weather by CustomWeather, © 2015

See weather overviewHow to use our weather pages